Location: *
(41.0833°N, 73.4167°W)
Time: 23:28:39
(UTC+00:00)

SL-16 R/B - Pass Details

Date: 22 October 2019
Orbit: 840 x 850 km, 71.0° (Epoch: 14 November)

Event Time Altitude Azimuth Distance (km) Brightness Sun altitude
Exits shadow 10:11:17 - 235° (SW) 2,597 4.3 -12.3°
Reaches altitude 10° 10:11:42 10° 237° (WSW) 2,456 4.1 -12.2°
Maximum altitude 10:16:49 35° 302° (WNW) 1,339 2.8 -11.2°
Drops below altitude 10° 10:22:00 10° 8° (N) 2,476 4.7 -10.3°
Sets 10:24:41 0° 17° (NNE) 3,416 5.5 -9.7°
